Time,TemperatureF,DewpointF,PressureIn,WindDirection,WindDirectionDegrees,WindSpeedMPH,WindSpeedGustMPH,Humidity,HourlyPrecipIn,Conditions,Clouds,dailyrainin,SolarRadiationWatts/m^2,SoftwareType,DateUTC
2013-11-18 04:40:00,54.4,47.7,29.77,NW,305,0.0,0.0,78,0.00,,,0.02,0,Wunderground v.1.15,2013-11-18 09:40:00,
2013-11-18 04:45:00,54.2,47.8,29.77,NW,305,0.0,0.0,79,0.00,,,0.02,0,Wunderground v.1.15,2013-11-18 09:45:00,
2013-11-18 04:50:00,54.1,48.1,29.77,NW,305,0.0,0.0,80,0.00,,,0.02,0,Wunderground v.1.15,2013-11-18 09:50:00,
2013-11-18 04:55:00,53.8,47.4,29.77,South,189,0.0,0.0,79,0.00,,,0.02,0,Wunderground v.1.15,2013-11-18 09:55:00,
2013-11-18 05:05:00,53.6,47.6,29.77,NW,324,0.0,0.0,80,0.00,,,0.02,0,Wunderground v.1.15,2013-11-18 10:05:00,
2013-11-18 05:15:00,53.3,47.6,29.77,SW,233,0.0,0.0,81,0.00,,,0.02,0,Wunderground v.1.15,2013-11-18 10:15:00,
2013-11-18 05:25:00,53.1,47.1,29.77,SSW,204,1.0,2.0,80,0.00,,,0.02,0,Wunderground v.1.15,2013-11-18 10:25:00,
2013-11-18 05:35:00,52.9,47.2,29.78,WNW,302,1.0,1.0,81,0.00,,,0.02,0,Wunderground v.1.15,2013-11-18 10:35:00,
2013-11-18 05:40:00,52.8,47.5,29.78,WNW,302,1.0,1.0,82,0.00,,,0.02,0,Wunderground v.1.15,2013-11-18 10:40:00,
2013-11-18 05:50:00,52.3,46.3,29.78,SW,217,2.0,2.0,80,0.00,,,0.02,0,Wunderground v.1.15,2013-11-18 10:50:00,
2013-11-18 05:55:00,52.3,46.0,29.78,SW,230,2.0,2.0,79,0.00,,,0.02,0,Wunderground v.1.15,2013-11-18 10:55:00,
2013-11-18 06:05:00,52.3,45.6,29.77,WSW,240,2.0,7.0,78,0.00,,,0.02,0,Wunderground v.1.15,2013-11-18 11:05:00,
2013-11-18 06:15:00,52.5,45.2,29.76,West,265,3.0,3.0,76,0.00,,,0.02,0,Wunderground v.1.15,2013-11-18 11:15:00,
2013-11-18 06:20:00,52.8,45.1,29.76,WSW,247,3.0,3.0,75,0.00,,,0.02,0,Wunderground v.1.15,2013-11-18 11:20:00,
2013-11-18 06:30:00,52.9,44.5,29.77,SW,235,2.0,2.0,73,0.00,,,0.02,0,Wunderground v.1.15,2013-11-18 11:30:00,
2013-11-18 06:40:00,52.9,44.1,29.77,SSW,196,1.0,3.0,72,0.00,,,0.02,0,Wunderground v.1.15,2013-11-18 11:40:00,
2013-11-18 06:45:00,52.9,44.5,29.76,SSW,196,1.0,3.0,73,0.00,,,0.02,0,Wunderground v.1.15,2013-11-18 11:45:00,
2013-11-18 06:55:00,52.8,44.0,29.76,SW,227,1.0,1.0,72,0.00,,,0.02,0,Wunderground v.1.15,2013-11-18 11:55:00,
2013-11-18 07:00:00,53.1,43.6,29.77,ENE,73,1.0,2.0,70,0.00,,,0.02,0,Wunderground v.1.15,2013-11-18 12:00:00,
2013-11-18 07:05:00,53.1,44.3,29.77,NE,41,0.0,2.0,72,0.00,,,0.02,0,Wunderground v.1.15,2013-11-18 12:05:00,
2013-11-18 07:15:00,52.8,43.7,29.78,ENE,76,1.0,1.0,71,0.00,,,0.02,0,Wunderground v.1.15,2013-11-18 12:15:00,
2013-11-18 07:20:00,52.6,44.2,29.78,ENE,76,0.0,0.0,73,0.00,,,0.02,0,Wunderground v.1.15,2013-11-18 12:20:00,
2013-11-18 07:25:00,52.5,44.4,29.78,ENE,76,0.0,0.0,74,0.00,,,0.02,0,Wunderground v.1.15,2013-11-18 12:25:00,
2013-11-18 07:35:00,51.6,43.2,29.77,SW,221,0.0,0.0,73,0.00,,,0.02,5,Wunderground v.1.15,2013-11-18 12:35:00,
2013-11-18 07:40:00,51.4,41.6,29.77,NNW,338,1.0,1.0,69,0.00,,,0.02,5,Wunderground v.1.15,2013-11-18 12:40:00,
2013-11-18 07:50:00,52.2,41.6,29.78,SSW,202,1.0,1.0,67,0.00,,,0.02,12,Wunderground v.1.15,2013-11-18 12:50:00,
2013-11-18 07:55:00,52.5,41.9,29.78,South,170,1.0,1.0,67,0.00,,,0.02,14,Wunderground v.1.15,2013-11-18 12:55:00,
2013-11-18 08:05:00,53.2,41.3,29.79,SSE,163,1.0,1.0,64,0.00,,,0.02,14,Wunderground v.1.15,2013-11-18 13:05:00,
2013-11-18 08:15:00,53.9,41.6,29.78,South,180,3.0,3.0,63,0.00,,,0.02,18,Wunderground v.1.15,2013-11-18 13:15:00,
2013-11-18 08:25:00,54.4,41.2,29.78,WSW,238,2.0,2.0,61,0.00,,,0.02,169,Wunderground v.1.15,2013-11-18 13:25:00,
2013-11-18 08:30:00,54.7,43.2,29.78,SSE,165,2.0,3.0,65,0.00,,,0.02,183,Wunderground v.1.15,2013-11-18 13:30:00,
2013-11-18 08:40:00,55.4,42.2,29.78,SSE,158,2.0,2.0,61,0.00,,,0.02,209,Wunderground v.1.15,2013-11-18 13:40:00,
2013-11-18 08:45:00,55.9,41.3,29.77,South,170,2.0,4.0,58,0.00,,,0.02,223,Wunderground v.1.15,2013-11-18 13:45:00,
2013-11-18 08:55:00,56.6,40.6,29.77,South,176,1.0,3.0,55,0.00,,,0.02,250,Wunderground v.1.15,2013-11-18 13:55:00,
2013-11-18 09:05:00,57.2,40.2,29.77,SSE,156,3.0,3.0,53,0.00,,,0.02,274,Wunderground v.1.15,2013-11-18 14:05:00,
2013-11-18 09:15:00,57.8,40.8,29.76,SSE,159,1.0,2.0,53,0.00,,,0.02,299,Wunderground v.1.15,2013-11-18 14:15:00,
2013-11-18 09:25:00,58.3,42.7,29.76,South,183,2.0,2.0,56,0.00,,,0.02,324,Wunderground v.1.15,2013-11-18 14:25:00,
2013-11-18 09:30:00,58.4,43.2,29.77,SSW,200,3.0,3.0,57,0.00,,,0.02,338,Wunderground v.1.15,2013-11-18 14:30:00,
2013-11-18 09:40:00,58.7,42.6,29.77,SSW,194,2.0,2.0,55,0.00,,,0.02,362,Wunderground v.1.15,2013-11-18 14:40:00,
2013-11-18 09:45:00,58.9,42.8,29.77,South,180,2.0,7.0,55,0.00,,,0.02,373,Wunderground v.1.15,2013-11-18 14:45:00,
2013-11-18 09:55:00,58.7,42.6,29.77,SSW,209,5.0,7.0,55,0.00,,,0.02,394,Wunderground v.1.15,2013-11-18 14:55:00,
2013-11-18 10:00:00,58.7,43.0,29.78,SSW,194,6.0,7.0,56,0.00,,,0.02,403,Wunderground v.1.15,2013-11-18 15:00:00,
2013-11-18 10:05:00,58.7,42.6,29.78,South,179,6.0,7.0,55,0.00,,,0.02,413,Wunderground v.1.15,2013-11-18 15:05:00,
2013-11-18 10:15:00,58.9,43.2,29.78,SE,145,6.0,8.0,56,0.00,,,0.02,431,Wunderground v.1.15,2013-11-18 15:15:00,
2013-11-18 10:20:00,59.2,44.0,29.78,SSE,162,5.0,8.0,57,0.00,,,0.02,438,Wunderground v.1.15,2013-11-18 15:20:00,
2013-11-18 10:25:00,59.5,43.8,29.78,SW,230,4.0,8.0,56,0.00,,,0.02,447,Wunderground v.1.15,2013-11-18 15:25:00,
2013-11-18 10:35:00,59.8,43.1,29.79,South,180,2.0,3.0,54,0.00,,,0.02,463,Wunderground v.1.15,2013-11-18 15:35:00,
2013-11-18 10:40:00,60.1,44.3,29.79,South,182,1.0,3.0,56,0.00,,,0.02,472,Wunderground v.1.15,2013-11-18 15:40:00,
2013-11-18 10:50:00,60.5,43.3,29.78,South,185,1.0,5.0,53,0.00,,,0.02,484,Wunderground v.1.15,2013-11-18 15:50:00,
2013-11-18 11:00:00,60.9,44.6,29.77,SW,228,4.0,5.0,55,0.00,,,0.02,498,Wunderground v.1.15,2013-11-18 16:00:00,
2013-11-18 11:05:00,61.0,44.2,29.77,SW,221,4.0,5.0,54,0.00,,,0.02,503,Wunderground v.1.15,2013-11-18 16:05:00,
2013-11-18 11:15:00,61.2,43.4,29.77,SSW,196,3.0,5.0,52,0.00,,,0.02,514,Wunderground v.1.15,2013-11-18 16:15:00,
2013-11-18 11:25:00,61.3,43.5,29.77,SW,228,5.0,6.0,52,0.00,,,0.02,521,Wunderground v.1.15,2013-11-18 16:25:00,
2013-11-18 11:30:00,61.5,43.7,29.76,SSW,193,4.0,7.0,52,0.00,,,0.02,524,Wunderground v.1.15,2013-11-18 16:30:00,
2013-11-18 11:35:00,61.5,43.2,29.76,WSW,240,4.0,7.0,51,0.00,,,0.02,528,Wunderground v.1.15,2013-11-18 16:35:00,
2013-11-18 11:45:00,61.8,43.5,29.76,SSW,209,5.0,6.0,51,0.00,,,0.02,533,Wunderground v.1.15,2013-11-18 16:45:00,
2013-11-18 11:55:00,62.1,43.7,29.76,NNW,343,4.0,4.0,51,0.00,,,0.02,538,Wunderground v.1.15,2013-11-18 16:55:00,
2013-11-18 12:00:00,62.0,42.1,29.77,SW,218,4.0,4.0,48,0.00,,,0.02,535,Wunderground v.1.15,2013-11-18 17:00:00,
2013-11-18 12:05:00,62.0,42.6,29.77,SW,226,3.0,4.0,49,0.00,,,0.02,540,Wunderground v.1.15,2013-11-18 17:05:00,
2013-11-18 12:15:00,62.0,42.1,29.76,SSW,200,4.0,4.0,48,0.00,,,0.02,450,Wunderground v.1.15,2013-11-18 17:15:00,
2013-11-18 12:20:00,62.0,42.1,29.76,WSW,251,4.0,4.0,48,0.00,,,0.02,521,Wunderground v.1.15,2013-11-18 17:20:00,
2013-11-18 12:25:00,62.1,42.2,29.76,SSW,209,4.0,4.0,48,0.00,,,0.02,517,Wunderground v.1.15,2013-11-18 17:25:00,
2013-11-18 12:35:00,62.3,42.3,29.76,WNW,282,3.0,8.0,48,0.00,,,0.02,371,Wunderground v.1.15,2013-11-18 17:35:00,
2013-11-18 12:40:00,62.1,42.2,29.76,WSW,238,4.0,5.0,48,0.00,,,0.02,160,Wunderground v.1.15,2013-11-18 17:40:00,
2013-11-18 12:50:00,62.1,42.2,29.76,South,180,2.0,2.0,48,0.00,,,0.02,428,Wunderground v.1.15,2013-11-18 17:50:00,
2013-11-18 13:00:00,61.6,40.0,29.77,NNW,330,4.0,6.0,45,0.00,,,0.02,530,Wunderground v.1.15,2013-11-18 18:00:00,
2013-11-18 13:05:00,61.5,39.4,29.77,SSE,162,3.0,6.0,44,0.00,,,0.02,392,Wunderground v.1.15,2013-11-18 18:05:00,
2013-11-18 13:15:00,61.2,37.3,29.78,West,272,4.0,5.0,41,0.00,,,0.02,424,Wunderground v.1.15,2013-11-18 18:15:00,
2013-11-18 13:20:00,61.0,37.1,29.78,South,178,3.0,3.0,41,0.00,,,0.02,403,Wunderground v.1.15,2013-11-18 18:20:00,
2013-11-18 13:30:00,60.5,33.4,29.79,NNE,21,5.0,5.0,36,0.00,,,0.02,343,Wunderground v.1.15,2013-11-18 18:30:00,
2013-11-18 13:40:00,60.9,35.1,29.79,WNW,293,2.0,9.0,38,0.00,,,0.02,408,Wunderground v.1.15,2013-11-18 18:40:00,
2013-11-18 13:45:00,60.9,32.3,29.79,West,269,3.0,9.0,34,0.00,,,0.02,493,Wunderground v.1.15,2013-11-18 18:45:00,
2013-11-18 13:55:00,60.1,33.0,29.79,West,268,6.0,8.0,36,0.00,,,0.02,482,Wunderground v.1.15,2013-11-18 18:55:00,
2013-11-18 14:00:00,59.9,32.9,29.78,SW,224,6.0,10.0,36,0.00,,,0.02,475,Wunderground v.1.15,2013-11-18 19:00:00,
2013-11-18 14:05:00,59.8,32.8,29.78,South,183,5.0,10.0,36,0.00,,,0.02,465,Wunderground v.1.15,2013-11-18 19:05:00,
2013-11-18 14:15:00,59.9,32.2,29.79,SW,227,4.0,6.0,35,0.00,,,0.02,445,Wunderground v.1.15,2013-11-18 19:15:00,
2013-11-18 14:20:00,60.1,33.7,29.79,South,182,3.0,8.0,37,0.00,,,0.02,445,Wunderground v.1.15,2013-11-18 19:20:00,
2013-11-18 14:30:00,59.9,32.2,29.79,SW,218,4.0,4.0,35,0.00,,,0.02,352,Wunderground v.1.15,2013-11-18 19:30:00,
2013-11-18 14:35:00,59.8,32.8,29.79,South,190,4.0,4.0,36,0.00,,,0.02,380,Wunderground v.1.15,2013-11-18 19:35:00,
2013-11-18 14:45:00,59.3,33.0,29.80,SSW,204,6.0,6.0,37,0.00,,,0.02,392,Wunderground v.1.15,2013-11-18 19:45:00,
2013-11-18 14:50:00,59.3,33.0,29.80,SW,228,5.0,5.0,37,0.00,,,0.02,326,Wunderground v.1.15,2013-11-18 19:50:00,
2013-11-18 14:55:00,59.3,32.3,29.80,South,172,5.0,5.0,36,0.00,,,0.02,361,Wunderground v.1.15,2013-11-18 19:55:00,
2013-11-18 15:05:00,58.9,32.7,29.79,South,186,6.0,7.0,37,0.00,,,0.02,206,Wunderground v.1.15,2013-11-18 20:05:00,
2013-11-18 15:15:00,58.4,32.2,29.80,SSW,206,6.0,7.0,37,0.00,,,0.02,141,Wunderground v.1.15,2013-11-18 20:15:00,
2013-11-18 15:20:00,58.3,31.4,29.80,SSW,209,5.0,5.0,36,0.00,,,0.02,84,Wunderground v.1.15,2013-11-18 20:20:00,
2013-11-18 15:30:00,58.0,29.0,29.79,SSW,210,5.0,9.0,33,0.00,,,0.02,190,Wunderground v.1.15,2013-11-18 20:30:00,
2013-11-18 15:40:00,57.0,28.1,29.79,SSW,193,9.0,9.0,33,0.00,,,0.02,81,Wunderground v.1.15,2013-11-18 20:40:00,
2013-11-18 15:45:00,56.7,28.6,29.80,South,187,7.0,9.0,34,0.00,,,0.02,60,Wunderground v.1.15,2013-11-18 20:45:00,
2013-11-18 15:55:00,56.2,30.2,29.80,South,186,6.0,7.0,37,0.00,,,0.02,44,Wunderground v.1.15,2013-11-18 20:55:00,
2013-11-18 16:00:00,55.9,30.0,29.80,WSW,247,6.0,7.0,37,0.00,,,0.02,39,Wunderground v.1.15,2013-11-18 21:00:00,
2013-11-18 16:05:00,55.7,31.1,29.80,SSW,211,5.0,7.0,39,0.00,,,0.02,35,Wunderground v.1.15,2013-11-18 21:05:00,
2013-11-18 16:15:00,55.3,31.4,29.81,SSE,158,5.0,10.0,40,0.00,,,0.02,40,Wunderground v.1.15,2013-11-18 21:15:00,
2013-11-18 16:20:00,55.1,31.8,29.81,SSW,197,2.0,2.0,41,0.00,,,0.02,39,Wunderground v.1.15,2013-11-18 21:20:00,
2013-11-18 16:25:00,54.8,30.9,29.81,WSW,237,1.0,3.0,40,0.00,,,0.02,37,Wunderground v.1.15,2013-11-18 21:25:00,
2013-11-18 16:35:00,54.5,29.4,29.80,South,179,4.0,7.0,38,0.00,,,0.02,32,Wunderground v.1.15,2013-11-18 21:35:00,
2013-11-18 16:40:00,54.1,28.4,29.80,South,187,6.0,12.0,37,0.00,,,0.02,21,Wunderground v.1.15,2013-11-18 21:40:00,
2013-11-18 16:50:00,53.5,27.8,29.80,SW,221,7.0,8.0,37,0.00,,,0.02,16,Wunderground v.1.15,2013-11-18 21:50:00,
2013-11-18 16:55:00,53.2,28.2,29.80,SW,221,6.0,8.0,38,0.00,,,0.02,14,Wunderground v.1.15,2013-11-18 21:55:00,
2013-11-18 17:05:00,52.5,28.8,29.80,SSW,202,3.0,5.0,40,0.00,,,0.02,7,Wunderground v.1.15,2013-11-18 22:05:00,
2013-11-18 17:15:00,52.0,28.4,29.81,SSW,211,3.0,8.0,40,0.00,,,0.02,0,Wunderground v.1.15,2013-11-18 22:15:00,
2013-11-18 17:25:00,51.6,28.0,29.81,WNW,295,1.0,2.0,40,0.00,,,0.02,0,Wunderground v.1.15,2013-11-18 22:25:00,
2013-11-18 17:30:00,51.4,29.1,29.82,NNE,28,1.0,1.0,42,0.00,,,0.02,0,Wunderground v.1.15,2013-11-18 22:30:00,
2013-11-18 17:40:00,51.1,29.4,29.82,SSE,163,0.0,0.0,43,0.00,,,0.02,0,Wunderground v.1.15,2013-11-18 22:40:00,
2013-11-18 17:45:00,51.0,28.7,29.82,SSE,158,0.0,1.0,42,0.00,,,0.02,0,Wunderground v.1.15,2013-11-18 22:45:00,
2013-11-18 17:55:00,50.7,29.0,29.82,NNW,334,1.0,5.0,43,0.00,,,0.02,0,Wunderground v.1.15,2013-11-18 22:55:00,
2013-11-18 18:00:00,50.4,29.8,29.83,South,172,1.0,1.0,45,0.00,,,0.02,0,Wunderground v.1.15,2013-11-18 23:00:00,
2013-11-18 18:05:00,50.2,29.1,29.83,SSE,166,1.0,2.0,44,0.00,,,0.02,0,Wunderground v.1.15,2013-11-18 23:05:00,
2013-11-18 18:15:00,50.1,29.6,29.83,WSW,254,2.0,5.0,45,0.00,,,0.02,0,Wunderground v.1.15,2013-11-18 23:15:00,
2013-11-18 18:20:00,50.1,29.0,29.83,WNW,290,3.0,6.0,44,0.00,,,0.02,0,Wunderground v.1.15,2013-11-18 23:20:00,
2013-11-18 18:25:00,49.9,28.8,29.83,NW,306,4.0,9.0,44,0.00,,,0.02,0,Wunderground v.1.15,2013-11-18 23:25:00,
2013-11-18 18:30:00,50.1,29.0,29.83,NW,305,4.0,4.0,44,0.00,,,0.02,0,Wunderground v.1.15,2013-11-18 23:30:00,
2013-11-18 18:40:00,49.8,29.3,29.83,SSW,204,1.0,3.0,45,0.00,,,0.02,0,Wunderground v.1.15,2013-11-18 23:40:00,
2013-11-18 18:45:00,49.6,29.1,29.83,North,357,3.0,3.0,45,0.00,,,0.02,0,Wunderground v.1.15,2013-11-18 23:45:00,
2013-11-18 18:55:00,49.4,28.4,29.83,WNW,302,3.0,6.0,44,0.00,,,0.02,0,Wunderground v.1.15,2013-11-18 23:55:00,
2013-11-18 19:00:00,49.4,28.4,29.84,WSW,251,4.0,4.0,44,0.00,,,0.02,0,Wunderground v.1.15,2013-11-19 00:00:00,
2013-11-18 19:05:00,49.4,28.4,29.84,SW,233,5.0,5.0,44,0.00,,,0.02,0,Wunderground v.1.15,2013-11-19 00:05:00,
2013-11-18 19:15:00,49.2,28.2,29.84,NNE,17,3.0,5.0,44,0.00,,,0.02,0,Wunderground v.1.15,2013-11-19 00:15:00,
2013-11-18 19:20:00,49.1,29.2,29.84,SSW,194,1.0,3.0,46,0.00,,,0.02,0,Wunderground v.1.15,2013-11-19 00:20:00,
2013-11-18 19:30:00,48.9,28.5,29.84,SE,141,2.0,2.0,45,0.00,,,0.02,0,Wunderground v.1.15,2013-11-19 00:30:00,
2013-11-18 19:35:00,48.8,28.4,29.84,SE,138,3.0,3.0,45,0.00,,,0.02,0,Wunderground v.1.15,2013-11-19 00:35:00,
2013-11-18 19:45:00,48.6,28.7,29.84,WSW,247,2.0,5.0,46,0.00,,,0.02,0,Wunderground v.1.15,2013-11-19 00:45:00,
2013-11-18 19:50:00,48.6,28.7,29.84,SSW,194,3.0,3.0,46,0.00,,,0.02,0,Wunderground v.1.15,2013-11-19 00:50:00,
2013-11-18 20:00:00,48.3,29.0,29.85,SW,216,2.0,2.0,47,0.00,,,0.02,0,Wunderground v.1.15,2013-11-19 01:00:00,
2013-11-18 20:05:00,48.2,29.4,29.85,SW,220,1.0,2.0,48,0.00,,,0.02,0,Wunderground v.1.15,2013-11-19 01:05:00,
2013-11-18 20:15:00,47.9,28.6,29.84,North,8,2.0,2.0,47,0.00,,,0.02,0,Wunderground v.1.15,2013-11-19 01:15:00,
2013-11-18 20:25:00,47.9,28.6,29.84,SW,224,2.0,10.0,47,0.00,,,0.02,0,Wunderground v.1.15,2013-11-19 01:25:00,
2013-11-18 20:30:00,47.9,28.6,29.85,NNW,327,3.0,3.0,47,0.00,,,0.02,0,Wunderground v.1.15,2013-11-19 01:30:00,
2013-11-18 20:40:00,47.7,28.9,29.85,West,261,1.0,3.0,48,0.00,,,0.02,0,Wunderground v.1.15,2013-11-19 01:40:00,
2013-11-18 20:45:00,47.6,28.3,29.85,SSW,196,3.0,3.0,47,0.00,,,0.02,0,Wunderground v.1.15,2013-11-19 01:45:00,
2013-11-18 20:55:00,47.3,28.6,29.85,SSW,200,1.0,3.0,48,0.00,,,0.02,0,Wunderground v.1.15,2013-11-19 01:55:00,
2013-11-18 21:00:00,47.1,28.4,29.86,SW,233,1.0,1.0,48,0.00,,,0.02,0,Wunderground v.1.15,2013-11-19 02:00:00,
2013-11-18 21:05:00,47.0,28.8,29.86,SSE,152,1.0,1.0,49,0.00,,,0.02,0,Wunderground v.1.15,2013-11-19 02:05:00,
2013-11-18 21:15:00,46.5,28.3,29.87,South,190,0.0,1.0,49,0.00,,,0.02,0,Wunderground v.1.15,2013-11-19 02:15:00,
2013-11-18 21:20:00,46.4,27.8,29.87,SW,221,1.0,3.0,48,0.00,,,0.02,0,Wunderground v.1.15,2013-11-19 02:20:00,
2013-11-18 21:30:00,46.1,28.0,29.88,WSW,245,1.0,1.0,49,0.00,,,0.02,0,Wunderground v.1.15,2013-11-19 02:30:00,
2013-11-18 21:35:00,46.0,27.9,29.88,SW,216,1.0,1.0,49,0.00,,,0.02,0,Wunderground v.1.15,2013-11-19 02:35:00,
2013-11-18 21:45:00,45.7,29.5,29.88,SW,218,2.0,2.0,53,0.00,,,0.02,0,Wunderground v.1.15,2013-11-19 02:45:00,
2013-11-18 21:50:00,45.5,29.8,29.88,SE,141,2.0,3.0,54,0.00,,,0.02,0,Wunderground v.1.15,2013-11-19 02:50:00,
2013-11-18 21:55:00,45.4,30.2,29.88,WNW,289,1.0,3.0,55,0.00,,,0.02,0,Wunderground v.1.15,2013-11-19 02:55:00,
2013-11-18 22:05:00,45.1,29.9,29.88,SW,228,1.0,7.0,55,0.00,,,0.02,0,Wunderground v.1.15,2013-11-19 03:05:00,
2013-11-18 22:15:00,44.6,30.3,29.87,NE,41,1.0,3.0,57,0.00,,,0.02,0,Wunderground v.1.15,2013-11-19 03:15:00,
2013-11-18 22:25:00,44.3,29.1,29.87,WNW,293,0.0,2.0,55,0.00,,,0.02,0,Wunderground v.1.15,2013-11-19 03:25:00,
2013-11-18 22:30:00,44.2,29.5,29.88,NNE,18,0.0,0.0,56,0.00,,,0.02,0,Wunderground v.1.15,2013-11-19 03:30:00,
2013-11-18 22:40:00,44.1,29.8,29.88,SE,132,0.0,0.0,57,0.00,,,0.02,0,Wunderground v.1.15,2013-11-19 03:40:00,
2013-11-18 22:50:00,43.9,29.6,29.88,East,98,1.0,1.0,57,0.00,,,0.02,0,Wunderground v.1.15,2013-11-19 03:50:00,
2013-11-18 22:55:00,43.9,30.1,29.88,ESE,122,1.0,1.0,58,0.00,,,0.02,0,Wunderground v.1.15,2013-11-19 03:55:00,
2013-11-18 23:05:00,43.6,29.8,29.88,South,169,0.0,0.0,58,0.00,,,0.02,0,Wunderground v.1.15,2013-11-19 04:05:00,
2013-11-18 23:15:00,43.3,29.5,29.89,SSW,202,0.0,0.0,58,0.00,,,0.02,0,Wunderground v.1.15,2013-11-19 04:15:00,
2013-11-18 23:20:00,43.1,29.3,29.89,SSE,162,0.0,0.0,58,0.00,,,0.02,0,Wunderground v.1.15,2013-11-19 04:20:00,
2013-11-18 23:30:00,42.6,29.3,29.88,WNW,283,0.0,0.0,59,0.00,,,0.02,0,Wunderground v.1.15,2013-11-19 04:30:00,
2013-11-18 23:35:00,42.5,29.6,29.88,NNW,331,0.0,0.0,60,0.00,,,0.02,0,Wunderground v.1.15,2013-11-19 04:35:00,
2013-11-18 23:45:00,42.3,29.4,29.88,North,355,0.0,0.0,60,0.00,,,0.02,0,Wunderground v.1.15,2013-11-19 04:45:00,
2013-11-18 23:55:00,42.2,29.7,29.88,South,189,2.0,6.0,61,0.00,,,0.02,0,Wunderground v.1.15,2013-11-19 04:55:00,